Flag Weather past 2 weeks in Chicago, Illinois, U.S.A.

Now
26 °F

Overcast.


Feels Like: 14 °F
Forecast: 21 / 29 °F
Wind: 14 mph from Northwest

Location: Chicago Midway Airport

Current Time: Nov 27, 2014 at 2:09:25 PM

Latest Report: Nov 27, 2014 at 1:53 PM


Visibility: 10 mi

Pressure: 30.39 "Hg

Humidity: 63%

Dew point: 15 °F

Location of ChicagoLocation

Historic Weather in Chicago — Graph

°F

Chicago temperature yesterday

Maximum temperature yesterday: 32 °F (at 7:53 PM)
Minimum temperature yesterday: 22 °F (at 2:53 AM)
Average temperature yesterday: 27 °F

Past Weeks' High & Low Weather Summary

 TemperatureHumidityPressure
High54 °F (Nov 23, 11:53 AM)97% (Nov 23, 5:53 PM)30.52 "Hg (Nov 23, 5:53 PM)
Low12 °F (Nov 18, 5:53 AM)24% (Nov 21, 2:53 PM)29.08 "Hg (Nov 24, 12:53 AM)
Average29 °F66%30.09 "Hg
* Reported Nov 12 12:53 PM — Nov 27 12:53 PM, Chicago, Weather by CustomWeather, © 2014

Note: Actual official high and low records may vary slightly from our data, if they occured in-between our weather recording intervals... More about our weather records

Advertising

Chicago weather history for previous 24 hours

 ConditionsComfort  
Time TempWeatherWind HumidityBarometerVisibility
12:53 PM
Nov 27
28 °FOvercast.14 mph64%30.38 "Hg10 mi
11:53 AM28 °FPartly sunny.15 mph64%30.37 "Hg10 mi
10:53 AM29 °FPartly sunny.14 mph64%30.37 "Hg10 mi
9:53 AM28 °FPartly sunny.15 mph72%30.37 "Hg10 mi
9:01 AM28 °FBroken clouds.12 mph72%30.31 "Hg10 mi
7:53 AM26 °FOvercast.8 mph77%30.34 "Hg8 mi
7:04 AM25 °FMostly cloudy.12 mph78%30.28 "Hg10 mi
6:53 AM25 °FMostly cloudy.10 mph78%30.32 "Hg8 mi
5:53 AM26 °FOvercast.7 mph74%30.30 "Hg8 mi
4:53 AM26 °FMostly cloudy.9 mph74%30.29 "Hg7 mi
3:53 AM26 °FOvercast.12 mph71%30.27 "Hg8 mi
2:53 AM28 °FLight snow. Overcast.10 mph75%30.26 "Hg6 mi
1:53 AM29 °FLight snow. Overcast.9 mph75%30.24 "Hg5 mi
12:53 AM29 °FLight snow. Overcast.9 mph75%30.23 "Hg5 mi
11:53 PM
Nov 26
30 °FLight snow. Overcast.9 mph75%30.23 "Hg5 mi
10:53 PM30 °FLight snow. Overcast.12 mph79%30.21 "Hg7 mi
9:53 PM31 °FOvercast.8 mph76%30.20 "Hg9 mi
8:53 PM30 °FOvercast.6 mph75%30.20 "Hg10 mi
7:53 PM32 °FLight snow. Overcast.5 mph66%30.18 "Hg9 mi
6:53 PM31 °FOvercast.6 mph69%30.17 "Hg10 mi
5:53 PM30 °FOvercast.7 mph69%30.16 "Hg10 mi
4:53 PM29 °FOvercast.6 mph69%30.16 "Hg9 mi
3:53 PM29 °FOvercast.6 mph66%30.17 "Hg10 mi
2:53 PM29 °FOvercast.6 mph66%30.16 "Hg9 mi
Weather by CustomWeather, © 2014

See weather overviewHow to use our weather pages